Wetterdaten: aktuell Donnerstag, 19.04.2018 11:17
Datum Zeit Temperatur Bodentemp. Luftfeuchte Luftdruck Regen Wind Richtung Richtung Sonnenschein
19.04.2018 11:17 24,9 C 14,9 C 5 % 1029 hPa 0,0 l/m 0,0 km/h (0 Bft) SO22.5 130 5 min
19.04.2018 11:12 24,7 C 14,9 C 5 % 1029 hPa 0,0 l/m 0,0 km/h (0 Bft) SO45 130 5 min
19.04.2018 11:07 24,6 C 14,6 C 5 % 1029 hPa 0,0 l/m 0,0 km/h (0 Bft) SO22.5 130 5 min
19.04.2018 11:02 24,4 C 14,5 C 5 % 1029 hPa 0,0 l/m 0,0 km/h (0 Bft) SO45 135 5 min
19.04.2018 10:57 24,3 C 14,7 C 5 % 1029 hPa 0,0 l/m 0,0 km/h (0 Bft) O-SO45 105 5 min
19.04.2018 10:52 24,4 C 14,6 C 5 % 1029 hPa 0,0 l/m 0,0 km/h (0 Bft) S-SO45 150 4 min
19.04.2018 10:48 24,0 C 14,4 C 5 % 1029 hPa 0,0 l/m 0,0 km/h (0 Bft) O-SO45 120 6 min
19.04.2018 10:42 24,0 C 14,2 C 5 % 1029 hPa 0,0 l/m 0,0 km/h (0 Bft) O-SO45 120 5 min
19.04.2018 10:37 23,7 C 14,1 C 5 % 1029 hPa 0,0 l/m 0,0 km/h (0 Bft) O-SO22.5 115 5 min
19.04.2018 10:32 23,6 C 14,2 C 5 % 1029 hPa 0,0 l/m 0,0 km/h (0 Bft) SO45 125 4 min
19.04.2018 10:28 23,6 C 13,9 C 5 % 1029 hPa 0,0 l/m 0,0 km/h (0 Bft) O-SO45 120 6 min
19.04.2018 10:22 23,4 C 13,8 C 5 % 1029 hPa 0,0 l/m 0,0 km/h (0 Bft) O-SO45 115 5 min
19.04.2018 10:17 23,0 C 13,9 C 5 % 1029 hPa 0,0 l/m 0,0 km/h (0 Bft) O-SO22.5 115 5 min
19.04.2018 10:12 22,8 C 13,5 C 16 % 1029 hPa 0,0 l/m 0,0 km/h (0 Bft) O-SO22.5 115 5 min
19.04.2018 10:07 22,6 C 13,6 C 8 % 1029 hPa 0,0 l/m 0,0 km/h (0 Bft) O-SO45 105 5 min
19.04.2018 10:02 22,3 C 13,3 C 5 % 1029 hPa 0,0 l/m 0,0 km/h (0 Bft) O22.5 100 5 min
19.04.2018 09:57 22,1 C 13,3 C 10 % 1029 hPa 0,0 l/m 0,0 km/h (0 Bft) O22.5 95 4 min
19.04.2018 09:53 22,0 C 13,1 C 22 % 1029 hPa 0,0 l/m 0,0 km/h (0 Bft) O-SO22.5 105 6 min
19.04.2018 09:47 21,7 C 13,1 C 22 % 1029 hPa 0,0 l/m 0,0 km/h (0 Bft) O-SO22.5 105 5 min
19.04.2018 09:42 21,5 C 12,7 C 26 % 1029 hPa 0,0 l/m 0,0 km/h (0 Bft) O45 90 5 min
19.04.2018 09:37 21,4 C 12,5 C 24 % 1029 hPa 0,0 l/m 0,0 km/h (0 Bft) O-SO22.5 105 4 min
19.04.2018 09:33 21,3 C 12,4 C 30 % 1029 hPa 0,0 l/m 0,0 km/h (0 Bft) O-SO22.5 105 6 min
19.04.2018 09:27 20,9 C 12,4 C 28 % 1029 hPa 0,0 l/m 0,0 km/h (0 Bft) O22.5 95 5 min
19.04.2018 09:22 20,7 C 11,8 C 35 % 1029 hPa 0,0 l/m 0,0 km/h (0 Bft) O22.5 85 5 min
19.04.2018 09:17 20,5 C 12,2 C 33 % 1029 hPa 0,0 l/m 0,0 km/h (0 Bft) O45 85 4 min
19.04.2018 09:13 20,2 C 12,4 C 34 % 1029 hPa 0,0 l/m 0,0 km/h (0 Bft) O22.5 95 6 min
19.04.2018 09:07 19,8 C 12,2 C 36 % 1029 hPa 0,0 l/m 0,0 km/h (0 Bft) O-SO22.5 105 5 min
19.04.2018 09:02 19,6 C 12,6 C 38 % 1029 hPa 0,0 l/m 0,0 km/h (0 Bft) O-SO22.5 110 5 min
19.04.2018 08:57 19,3 C 12,5 C 39 % 1029 hPa 0,0 l/m 0,0 km/h (0 Bft) O-SO22.5 105 5 min
19.04.2018 08:52 19,0 C 12,8 C 46 % 1029 hPa 0,0 l/m 0,0 km/h (0 Bft) O-SO22.5 115 5 min
19.04.2018 08:47 18,9 C 12,7 C 48 % 1029 hPa 0,0 l/m 0,0 km/h (0 Bft) O 95 5 min
19.04.2018 08:42 18,3 C 12,3 C 48 % 1029 hPa 0,0 l/m 0,0 km/h (0 Bft) O67.5 100 4 min
19.04.2018 08:38 17,7 C 11,8 C 51 % 1029 hPa 0,0 l/m 0,0 km/h (0 Bft) O22.5 85 6 min
19.04.2018 08:32 17,1 C 11,2 C 57 % 1029 hPa 0,0 l/m 0,0 km/h (0 Bft) O22.5 85 0 min
19.04.2018 08:27 16,5 C 10,8 C 66 % 1029 hPa 0,0 l/m 0,0 km/h (0 Bft) O-NO 60 0 min
19.04.2018 08:22 15,8 C 10,4 C 72 % 1029 hPa 0,0 l/m 0,0 km/h (0 Bft) O-NO 60 0 min
19.04.2018 08:18 15,1 C 9,9 C 76 % 1029 hPa 0,0 l/m 0,0 km/h (0 Bft) O-NO 60 0 min
19.04.2018 08:12 14,9 C 9,3 C 78 % 1029 hPa 0,0 l/m 0,0 km/h (0 Bft) O-NO 60 0 min
19.04.2018 08:07 14,5 C 9,0 C 80 % 1029 hPa 0,0 l/m 0,0 km/h (0 Bft) O-NO 60 0 min
19.04.2018 08:02 14,1 C 8,4 C 82 % 1029 hPa 0,0 l/m 0,0 km/h (0 Bft) O-NO 60 0 min
19.04.2018 07:58 13,8 C 7,8 C 83 % 1029 hPa 0,0 l/m 0,0 km/h (0 Bft) O-NO 60 0 min
19.04.2018 07:52 13,5 C 6,6 C 83 % 1029 hPa 0,0 l/m 0,0 km/h (0 Bft) O-NO 60 0 min
19.04.2018 07:47 13,1 C 6,6 C 84 % 1029 hPa 0,0 l/m 0,0 km/h (0 Bft) NO 55 0 min
19.04.2018 07:42 12,8 C 6,0 C 84 % 1029 hPa 0,0 l/m 0,0 km/h (0 Bft) O-NO 60 0 min
19.04.2018 07:37 12,6 C 5,6 C 83 % 1029 hPa 0,0 l/m 0,0 km/h (0 Bft) O-NO 60 0 min
19.04.2018 07:32 12,4 C 5,3 C 83 % 1029 hPa 0,0 l/m 0,0 km/h (0 Bft) O-NO 60 0 min
19.04.2018 07:27 12,2 C 4,8 C 83 % 1029 hPa 0,0 l/m 0,0 km/h (0 Bft) O-NO 60 0 min
19.04.2018 07:23 12,2 C 4,7 C 83 % 1029 hPa 0,0 l/m 0,0 km/h (0 Bft) O-NO 60 0 min
19.04.2018 07:17 12,1 C 4,6 C 83 % 1029 hPa 0,0 l/m 0,0 km/h (0 Bft) O-NO 60 0 min
_ Min-Zeit 06:02 06:32 13:17 17:42 - 12:02 - - -
Minimum _ 9,2 C 3,1 C 5 % 1029 hPa - 0,0 km/h (0 Bft) - - -
_ Max-Zeit 18:47 17:32 07:03 12:02 12:02 12:02 - - 08:38
Maximum _ 27,1 C 17,2 C 87 % 1032 hPa 0,0 l/m 0,0 km/h
NO (0 Bft)
- - 6 min
Durchschnitt _ 18,5 C 9,8 C 42 % 1030 hPa #0,0 l/m 0,0 km/h (0 Bft) - - - #2:45 h